GLOBALSTAR M079

Last updated on Mon Sep 21 2026 00:03:12 GMT+0000 (Coordinated Universal Time)

1 37188U 10054A 26263.18182230 -.00000098 00000+0 34737-4 0 9996 2 37188 52.0036 179.4926 0000441 87.6628 85.7403 12.62267589734547
UTC large
Height (km)
Speed (km/s)
/
Latitude / Longitude
Inclination (degrees)
Orbital Period (minutes)
Azimuth
Elevation
Range (km)
Doppler Factor

Next 0 passes for location: London (51.5072 / 0.1276)

No passes found over London.
GLOBALSTAR M079